This is the latest recevied weather packets stored in our database for station/object N5PRN. If no packets are shown the sender has not sent any weather packets the latest 10 day(s).
| Time | Temp. | Humidity | Pressure | Rain* | Wind** | Luminosity | Snow |
|---|---|---|---|---|---|---|---|
| 1777496089 | 24.44° C | 94% | 1010.8 hPa | 0 mm | - | 32 W/m² | - |
| 1777495784 | 24.44° C | 93% | 1010.4 hPa | 0 mm | - | 37 W/m² | - |
| 1777495481 | 24.44° C | 93% | 1010.2 hPa | 0 mm | - | 52 W/m² | - |
| 1777495177 | 24.44° C | 93% | 1010.6 hPa | 0 mm | - | 68 W/m² | - |
| 1777494875 | 25° C | 92% | 1010.7 hPa | 0 mm | - | 44 W/m² | - |
| 1777494572 | 25° C | 92% | 1010.8 hPa | 1.78 mm | - | 35 W/m² | - |
| 1777494269 | 25° C | 91% | 1011 hPa | 6.6 mm | - | 25 W/m² | - |
| 1777493966 | 25.56° C | 90% | 1011 hPa | 6.6 mm | - | 49 W/m² | - |
| 1777493664 | 25.56° C | 90% | 1011.2 hPa | 0 mm | - | 47 W/m² | - |
| 1777493361 | 25.56° C | 89% | 1010.9 hPa | 0 mm | - | 26 W/m² | - |
| 1777493057 | 26.11° C | 89% | 1010.9 hPa | 0 mm | - | 23 W/m² | - |
| 1777492754 | 26.11° C | 88% | 1011.2 hPa | 0 mm | - | 33 W/m² | - |
| 1777492449 | 26.67° C | 87% | 1011 hPa | 0 mm | - | 65 W/m² | - |
| 1777492146 | 26.67° C | 87% | 1010.9 hPa | 0 mm | - | 66 W/m² | - |
| 1777491843 | 26.67° C | 86% | 1010.8 hPa | 0 mm | - | 67 W/m² | - |
| 1777491539 | 26.67° C | 86% | 1011.1 hPa | 0 mm | - | 52 W/m² | - |
| 1777491237 | 27.22° C | 85% | 1010.9 hPa | 0 mm | - | 124 W/m² | - |
| 1777490933 | 27.78° C | 84% | 1010.9 hPa | 0 mm | - | 105 W/m² | - |
| 1777490629 | 27.78° C | 84% | 1011 hPa | 0 mm | - | 220 W/m² | - |
| 1777490325 | 27.78° C | 84% | 1011.1 hPa | 0 mm | - | 269 W/m² | - |
| 1777490023 | 27.78° C | 83% | 1010.9 hPa | 0 mm | - | 295 W/m² | - |
| 1777489721 | 27.78° C | 83% | 1010.8 hPa | 0 mm | - | 255 W/m² | - |
| 1777489417 | 27.78° C | 83% | 1011.3 hPa | 0 mm | - | 205 W/m² | - |
| 1777489114 | 27.78° C | 83% | 1011.2 hPa | 0 mm | - | 194 W/m² | - |
| 1777488811 | 27.78° C | 81% | 1011.3 hPa | 0 mm | - | 187 W/m² | - |
* Rain latest hour (hover to see other rain measurements)
** Current wind speed in m/s (hover to see current wind gust speed)